Regional Weather Roundup
Issued by NWS Cleveland, OH

Home | Current Version | Previous Version | Text Only | Print | Product List | Glossary Off
Versions: 1 2 3 4 5 6 7 8 9 10 11 12 13 14 15 16 17 18 19 20 21 22 23 24 25 26 27 28 29 30 31 32 33 34 35 36 37 38 39 40 41 42 43 44 45 46 47 48 49 50

000
ASUS41 KCLE 280602
RWRCLE
OHIO REGIONAL WEATHER ROUNDUP
NATIONAL WEATHER SERVICE CLEVELAND, OH
200 AM EDT THU JUL 28 2016

NOTE: "FAIR" INDICATES FEW OR NO CLOUDS BELOW 12,000 FEET WITH NO
SIGNIFICANT WEATHER AND/OR OBSTRUCTIONS TO VISIBILITY.

OHZ001>008-015>018-024>027-034-035-043-044-280700-
   NORTHWEST OHIO

CITY           SKY/WX    TMP DP  RH WIND       PRES   REMARKS
DEFIANCE       CLEAR     74  65  73 NE5       29.93F
FINDLAY        PTCLDY    71  62  73 CALM      29.93F
TOLEDO EXPRESS NOT AVBL
TOLEDO EXEC    CLEAR     73  65  75 SW3       29.93F
LIMA           PTCLDY    72  66  81 CALM      29.95S
$$

OHZ009>014-019>023-028>033-038-089-280700-
   NORTHEAST OHIO

CITY           SKY/WX    TMP DP  RH WIND       PRES   REMARKS
CLE-HOPKINS    PTCLDY    71  59  65 CALM      29.95F
CLE-LAKEFRONT  CLEAR     77  58  51 SE6       29.91F
CUY CO. ARPT   NOT AVBL
LORAIN-ELYRIA  CLEAR     65  60  84 CALM      29.93F
ASHTABULA      CLEAR     64  62  93 CALM      29.96F
AKRON-CANTON   PTCLDY    69  60  73 NE6       29.96F
WOOSTER        CLEAR     65  62  90 CALM      29.96F
MANSFIELD      MOCLDY    71  61  70 SE5       29.96F
YOUNGSTOWN     PTCLDY    65  61  87 E7        29.96F
$$

OHZ042-051>053-060>062-070>072-077>081-280700-
  SOUTHWEST OHIO

CITY           SKY/WX    TMP DP  RH WIND       PRES   REMARKS
CINC-COVINGTON CLOUDY    76  75  97 CALM      29.94F FOG
CINC-LUNKEN    MOCLDY    74  74 100 CALM      29.93F
HAMILTON       CLOUDY    75  71  87 CALM      29.95S
DAYTON         MOCLDY    75  63  66 CALM      29.96F
WRIGHT-PAT AFB MOCLDY    75  67  76 W1        29.94S
DAYTON GENERAL CLOUDY    77  66  68 CALM      29.94F
WILMINGTON     PTCLDY    76  70  82 CALM      29.95S
$$

OHZ036-037-039>041-045>050-054>059-063>069-073>076-082>088-280700-
  CENTRAL AND SOUTHEAST OHIO

CITY           SKY/WX    TMP DP  RH WIND       PRES   REMARKS
COLUMBUS       CLOUDY    78  66  66 CALM      29.92F
OSU AIRPORT    MOCLDY    77  67  71 NE3       29.93F
BOLTON FIELD   CLOUDY    75  71  88 CALM      29.94S
RICKENBACK AFB CLOUDY    76  73  90 S6        29.93S
NEWARK         CLOUDY    74  68  81 CALM      29.94S
MARION         PTCLDY    74  62  66 CALM      29.95F
LANCASTER      PTCLDY    75  73  93 CALM      29.94F
ZANESVILLE     CLOUDY    76  69  79 CALM      29.94F
NEW PHILLY     PTCLDY    72  62  71 S3        29.95S
$$




USA.gov is the U.S. government's official web portal to all federal, state and local government web resources and services.